Location: Vulcan
(50.4000°N, 113.2500°W)
Time: 22:55:19
(UTC-07:00)

Vanguard 2 - All Passes

Search period start: 17 November 2019 00:00
Search period end: 27 November 2019 00:00
Orbit: 554 x 2937 km, 32.9° (Epoch: 17 November)

Date Brightness Start Highest point End Pass type
(mag) Time Alt. Az. Time Alt. Az. Time Alt. Az.
17 Nov - 09:03:57 10° S 09:06:50 12° S 09:09:21 10° SSE daylight
17 Nov - 11:11:36 10° SSW 11:14:30 13° S 11:16:59 10° SSE daylight
18 Nov - 09:20:06 10° SSW 09:24:30 15° S 09:28:04 10° SE daylight
18 Nov - 11:29:07 10° SW 11:32:04 13° SSW 11:34:34 10° SSE daylight
19 Nov - 07:30:31 10° S 07:33:59 12° SSE 07:37:01 10° SE daylight
19 Nov - 09:36:55 10° SW 09:42:10 17° S 09:46:13 10° SE daylight
19 Nov - 11:46:59 10° SW 11:49:35 13° SSW 11:51:50 10° S daylight
20 Nov - 07:45:51 10° SSW 07:51:40 16° SSE 07:56:18 10° SE daylight
20 Nov - 09:54:06 10° SW 09:59:48 19° S 10:04:05 10° SE daylight
20 Nov - 12:05:20 10° SW 12:07:03 11° SSW 12:08:37 10° S daylight
21 Nov - 05:59:18 10° SSE 06:00:42 10° SSE 06:02:02 10° SSE visible
21 Nov - 08:02:11 10° SSW 08:09:21 19° S 08:14:45 10° SE daylight
21 Nov - 10:11:33 10° SW 10:17:23 19° S 10:21:44 10° SE daylight
22 Nov - 06:12:12 10° S 06:18:21 15° SSE 06:23:26 10° SE visible
22 Nov - 08:19:00 10° SW 08:27:01 22° S 08:32:50 10° SE daylight
22 Nov - 10:29:13 10° SW 10:34:56 19° SSW 10:39:13 10° SSE daylight
23 Nov - 06:27:43 10° SSW 06:36:00 19° SSE 06:42:26 10° ESE visible
23 Nov - 08:36:08 10° SW 08:44:40 24° S 08:50:41 10° SE daylight
23 Nov - 10:47:04 10° WSW 10:52:24 18° SSW 10:56:30 10° SSE daylight
24 Nov - 04:40:41 10° SSE 04:44:36 11° SSE 04:48:12 10° SE visible
24 Nov - 06:43:58 10° SSW 06:53:39 23° SSE 07:00:50 10° ESE visible
24 Nov - 08:53:30 10° SW 09:02:17 25° S 09:08:24 10° SE daylight
24 Nov - 11:05:11 10° WSW 11:09:49 16° SSW 11:13:30 10° S daylight
25 Nov - 04:54:16 10° S 05:02:11 16° SSE 05:08:49 10° ESE visible
25 Nov - 07:00:41 10° SW 07:11:19 26° S 07:18:56 10° ESE visible
25 Nov - 09:11:04 10° WSW 09:19:51 26° S 09:25:57 10° SE daylight
25 Nov - 11:23:44 10° WSW 11:27:09 13° SSW 11:30:02 10° S daylight
26 Nov - 05:09:38 10° SSW 05:19:46 20° SSE 05:27:51 10° ESE visible
26 Nov - 07:17:44 10° SW 07:28:58 29° S 07:36:49 10° ESE visible
26 Nov - 09:28:48 10° WSW 09:37:23 25° SSW 09:43:23 10° SE daylight
